Year,Month,Day,Hour,Minute,Value (Times are PST for temperature in C)
2019,07,15,00,00,16.90
2019,07,15,00,01,16.90
2019,07,15,00,02,16.90
2019,07,15,00,03,16.90
2019,07,15,00,04,16.90
2019,07,15,00,05,16.90
2019,07,15,00,06,16.90
2019,07,15,00,07,16.90
2019,07,15,00,08,16.90
2019,07,15,00,09,16.90
2019,07,15,00,10,16.90
2019,07,15,00,11,16.90
2019,07,15,00,12,16.90
2019,07,15,00,13,16.90
2019,07,15,00,14,16.90
2019,07,15,00,15,16.90
2019,07,15,00,16,16.90
2019,07,15,00,17,16.90
2019,07,15,00,18,16.90
2019,07,15,00,19,16.90
2019,07,15,00,20,16.90
2019,07,15,00,21,16.90
2019,07,15,00,22,16.90
2019,07,15,00,23,16.90
2019,07,15,00,24,16.90
2019,07,15,00,25,16.90
2019,07,15,00,26,16.90
2019,07,15,00,27,16.90
2019,07,15,00,28,16.90
2019,07,15,00,29,16.90
2019,07,15,00,30,16.90
2019,07,15,00,31,16.80
2019,07,15,00,32,16.80
2019,07,15,00,33,16.80
2019,07,15,00,34,16.80
2019,07,15,00,35,16.80
2019,07,15,00,36,16.80
2019,07,15,00,37,16.80
2019,07,15,00,38,16.80
2019,07,15,00,39,16.80
2019,07,15,00,40,16.70
2019,07,15,00,41,16.70
2019,07,15,00,42,16.70
2019,07,15,00,43,16.70
2019,07,15,00,44,16.70
2019,07,15,00,45,16.70
2019,07,15,00,46,16.70
2019,07,15,00,47,16.70
2019,07,15,00,48,16.60
2019,07,15,00,49,16.60
2019,07,15,00,50,16.60
2019,07,15,00,51,16.60
2019,07,15,00,52,16.60
2019,07,15,00,53,16.60
2019,07,15,00,54,16.60
2019,07,15,00,55,16.60
2019,07,15,00,56,16.50
2019,07,15,00,57,16.50
2019,07,15,00,58,16.50
2019,07,15,00,59,16.50
2019,07,15,01,00,16.50
2019,07,15,01,01,16.50
2019,07,15,01,02,16.40
2019,07,15,01,03,16.40
2019,07,15,01,04,16.40
2019,07,15,01,05,16.40
2019,07,15,01,06,16.40
2019,07,15,01,07,16.40
2019,07,15,01,08,16.40
2019,07,15,01,09,16.40
2019,07,15,01,10,16.40
2019,07,15,01,11,16.40
2019,07,15,01,12,16.40
2019,07,15,01,13,16.40
2019,07,15,01,14,16.40
2019,07,15,01,15,16.40
2019,07,15,01,16,16.40
2019,07,15,01,17,16.30
2019,07,15,01,18,16.30
2019,07,15,01,19,16.40
2019,07,15,01,20,16.30
2019,07,15,01,21,16.30
2019,07,15,01,22,16.40
2019,07,15,01,23,16.30
2019,07,15,01,24,16.30
2019,07,15,01,25,16.30
2019,07,15,01,26,16.30
2019,07,15,01,27,16.30
2019,07,15,01,28,16.30
2019,07,15,01,29,16.30
2019,07,15,01,30,16.40
2019,07,15,01,31,16.40
2019,07,15,01,32,16.40
2019,07,15,01,33,16.40
2019,07,15,01,34,16.40
2019,07,15,01,35,16.40
2019,07,15,01,36,16.40
2019,07,15,01,37,16.40
2019,07,15,01,38,16.40
2019,07,15,01,39,16.40
2019,07,15,01,40,16.40
2019,07,15,01,41,16.40
2019,07,15,01,42,16.40
2019,07,15,01,43,16.40
2019,07,15,01,44,16.40
2019,07,15,01,45,16.40
2019,07,15,01,46,16.40
2019,07,15,01,47,16.40
2019,07,15,01,48,16.30
2019,07,15,01,49,16.30
2019,07,15,01,50,16.30
2019,07,15,01,51,16.30
2019,07,15,01,52,16.30
2019,07,15,01,53,16.30
2019,07,15,01,54,16.30
2019,07,15,01,55,16.30
2019,07,15,01,56,16.30
2019,07,15,01,57,16.20
2019,07,15,01,58,16.20
2019,07,15,01,59,16.20
2019,07,15,02,00,16.20
2019,07,15,02,01,16.20
2019,07,15,02,02,16.20
2019,07,15,02,03,16.20
2019,07,15,02,04,16.20
2019,07,15,02,05,16.20
2019,07,15,02,06,16.20
2019,07,15,02,07,16.20
2019,07,15,02,08,16.10
2019,07,15,02,09,16.10
2019,07,15,02,10,16.10
2019,07,15,02,11,16.10
2019,07,15,02,12,16.10
2019,07,15,02,13,16.10
2019,07,15,02,14,16.10
2019,07,15,02,15,16.10
2019,07,15,02,16,16.10
2019,07,15,02,17,16.10
2019,07,15,02,18,16.10
2019,07,15,02,19,16.10
2019,07,15,02,20,16.10
2019,07,15,02,21,16.10
2019,07,15,02,22,16.10
2019,07,15,02,23,16.10
2019,07,15,02,24,16.10
2019,07,15,02,25,16.10
2019,07,15,02,26,16.10
2019,07,15,02,27,16.10
2019,07,15,02,28,16.00
2019,07,15,02,29,16.00
2019,07,15,02,30,16.00
2019,07,15,02,31,16.00
2019,07,15,02,32,16.00
2019,07,15,02,33,16.00
2019,07,15,02,34,16.00
2019,07,15,02,35,15.90
2019,07,15,02,36,15.90
2019,07,15,02,37,15.90
2019,07,15,02,38,15.90
2019,07,15,02,39,15.90
2019,07,15,02,40,16.00
2019,07,15,02,41,16.00
2019,07,15,02,42,16.00
2019,07,15,02,43,16.00
2019,07,15,02,44,16.00
2019,07,15,02,45,16.00
2019,07,15,02,46,16.00
2019,07,15,02,47,16.00
2019,07,15,02,48,16.00
2019,07,15,02,49,16.00
2019,07,15,02,50,16.10
2019,07,15,02,51,16.10
2019,07,15,02,52,16.10
2019,07,15,02,53,16.10
2019,07,15,02,54,16.10
2019,07,15,02,55,16.10
2019,07,15,02,56,16.10
2019,07,15,02,57,16.10
2019,07,15,02,58,16.10
2019,07,15,02,59,16.10
2019,07,15,03,00,16.10
2019,07,15,03,01,16.00
2019,07,15,03,02,16.00
2019,07,15,03,03,16.00
2019,07,15,03,04,15.90
2019,07,15,03,05,15.90
2019,07,15,03,06,15.90
2019,07,15,03,07,15.90
2019,07,15,03,08,15.90
2019,07,15,03,09,15.80
2019,07,15,03,10,15.80
2019,07,15,03,11,15.80
2019,07,15,03,12,15.80
2019,07,15,03,13,15.80
2019,07,15,03,14,15.80
2019,07,15,03,15,15.80
2019,07,15,03,16,15.70
2019,07,15,03,17,15.70
2019,07,15,03,18,15.70
2019,07,15,03,19,15.70
2019,07,15,03,20,15.70
2019,07,15,03,21,15.70
2019,07,15,03,22,15.60
2019,07,15,03,23,15.60
2019,07,15,03,24,15.60
2019,07,15,03,25,15.60
2019,07,15,03,26,15.60
2019,07,15,03,27,15.60
2019,07,15,03,28,15.60
2019,07,15,03,29,15.50
2019,07,15,03,30,15.50
2019,07,15,03,31,15.50
2019,07,15,03,32,15.50
2019,07,15,03,33,15.50
2019,07,15,03,34,15.50
2019,07,15,03,35,15.50
2019,07,15,03,36,15.40
2019,07,15,03,37,15.40
2019,07,15,03,38,15.40
2019,07,15,03,39,15.40
2019,07,15,03,40,15.40
2019,07,15,03,41,15.40
2019,07,15,03,42,15.40
2019,07,15,03,43,15.40
2019,07,15,03,44,15.40
2019,07,15,03,45,15.40
2019,07,15,03,46,15.40
2019,07,15,03,47,15.40
2019,07,15,03,48,15.40
2019,07,15,03,49,15.40
2019,07,15,03,50,15.40
2019,07,15,03,51,15.40
2019,07,15,03,52,15.40
2019,07,15,03,53,15.40
2019,07,15,03,54,15.30
2019,07,15,03,55,15.30
2019,07,15,03,56,15.30
2019,07,15,03,57,15.30
2019,07,15,03,58,15.30
2019,07,15,03,59,15.30
2019,07,15,04,00,15.30
2019,07,15,04,01,15.30
2019,07,15,04,02,15.30
2019,07,15,04,03,15.40
2019,07,15,04,04,15.40
2019,07,15,04,05,15.40
2019,07,15,04,06,15.40
2019,07,15,04,07,15.40
2019,07,15,04,08,15.40
2019,07,15,04,09,15.40
2019,07,15,04,10,15.40
2019,07,15,04,11,15.40
2019,07,15,04,12,15.40
2019,07,15,04,13,15.40
2019,07,15,04,14,15.40
2019,07,15,04,15,15.30
2019,07,15,04,16,15.30
2019,07,15,04,17,15.30
2019,07,15,04,18,15.30
2019,07,15,04,19,15.30
2019,07,15,04,20,15.30
2019,07,15,04,21,15.20
2019,07,15,04,22,15.20
2019,07,15,04,23,15.20
2019,07,15,04,24,15.20
2019,07,15,04,25,15.10
2019,07,15,04,26,15.10
2019,07,15,04,27,15.10
2019,07,15,04,28,15.10
2019,07,15,04,29,15.20
2019,07,15,04,30,15.20
2019,07,15,04,31,15.20
2019,07,15,04,32,15.20
2019,07,15,04,33,15.20
2019,07,15,04,34,15.20
2019,07,15,04,35,15.20
2019,07,15,04,36,15.20
2019,07,15,04,37,15.20
2019,07,15,04,38,15.10
2019,07,15,04,39,15.20
2019,07,15,04,40,15.20
2019,07,15,04,41,15.20
2019,07,15,04,42,15.20
2019,07,15,04,43,15.10
2019,07,15,04,44,15.10
2019,07,15,04,45,15.20
2019,07,15,04,46,15.20
2019,07,15,04,47,15.20
2019,07,15,04,48,15.20
2019,07,15,04,49,15.10
2019,07,15,04,50,15.10
2019,07,15,04,51,15.10
2019,07,15,04,52,15.10
2019,07,15,04,53,15.10
2019,07,15,04,54,15.10
2019,07,15,04,55,15.10
2019,07,15,04,56,15.20
2019,07,15,04,57,15.20
2019,07,15,04,58,15.20
2019,07,15,04,59,15.20
2019,07,15,05,00,15.30
2019,07,15,05,01,15.30
2019,07,15,05,02,15.30
2019,07,15,05,03,15.30
2019,07,15,05,04,15.30
2019,07,15,05,05,15.30
2019,07,15,05,06,15.30
2019,07,15,05,07,15.30
2019,07,15,05,08,15.30
2019,07,15,05,09,15.30
2019,07,15,05,10,15.30
2019,07,15,05,11,15.30
2019,07,15,05,12,15.30
2019,07,15,05,13,15.30
2019,07,15,05,14,15.30
2019,07,15,05,15,15.30
2019,07,15,05,16,15.30
2019,07,15,05,17,15.30
2019,07,15,05,18,15.30
2019,07,15,05,19,15.30
2019,07,15,05,20,15.30
2019,07,15,05,21,15.20
2019,07,15,05,22,15.20
2019,07,15,05,23,15.20
2019,07,15,05,24,15.20
2019,07,15,05,25,15.20
2019,07,15,05,26,15.20
2019,07,15,05,27,15.20
2019,07,15,05,28,15.20
2019,07,15,05,29,15.20
2019,07,15,05,30,15.20
2019,07,15,05,31,15.10
2019,07,15,05,32,15.10
2019,07,15,05,33,15.10
2019,07,15,05,34,15.10
2019,07,15,05,35,15.10
2019,07,15,05,36,15.00
2019,07,15,05,37,15.00
2019,07,15,05,38,14.90
2019,07,15,05,39,14.90
2019,07,15,05,40,14.90
2019,07,15,05,41,14.80
2019,07,15,05,42,14.80
2019,07,15,05,43,14.80
2019,07,15,05,44,14.80
2019,07,15,05,45,14.80
2019,07,15,05,46,14.80
2019,07,15,05,47,14.70
2019,07,15,05,48,14.70
2019,07,15,05,49,14.70
2019,07,15,05,50,14.70
2019,07,15,05,51,14.70
2019,07,15,05,52,14.70
2019,07,15,05,53,14.60
2019,07,15,05,54,14.70
2019,07,15,05,55,14.60
2019,07,15,05,56,14.60
2019,07,15,05,57,14.60
2019,07,15,05,58,14.60
2019,07,15,05,59,14.60
2019,07,15,06,00,14.60
2019,07,15,06,01,14.60
2019,07,15,06,02,14.60
2019,07,15,06,03,14.60
2019,07,15,06,04,14.60
2019,07,15,06,05,14.60
2019,07,15,06,06,14.60
2019,07,15,06,07,14.60
2019,07,15,06,08,14.60
2019,07,15,06,09,14.60
2019,07,15,06,10,14.60
2019,07,15,06,11,14.60
2019,07,15,06,12,14.60
2019,07,15,06,13,14.60
2019,07,15,06,14,14.70
2019,07,15,06,15,14.70
2019,07,15,06,16,14.70
2019,07,15,06,17,14.70
2019,07,15,06,18,14.70
2019,07,15,06,19,14.70
2019,07,15,06,20,14.70
2019,07,15,06,21,14.70
2019,07,15,06,22,14.70
2019,07,15,06,23,14.70
2019,07,15,06,24,14.70
2019,07,15,06,25,14.70
2019,07,15,06,26,14.80
2019,07,15,06,27,14.80
2019,07,15,06,28,14.80
2019,07,15,06,29,14.80
2019,07,15,06,30,14.80
2019,07,15,06,31,14.80
2019,07,15,06,32,14.80
2019,07,15,06,33,14.80
2019,07,15,06,34,14.80
2019,07,15,06,35,14.80
2019,07,15,06,36,14.80
2019,07,15,06,37,14.80
2019,07,15,06,38,14.80
2019,07,15,06,39,14.90
2019,07,15,06,40,14.90
2019,07,15,06,41,14.90
2019,07,15,06,42,14.90
2019,07,15,06,43,15.00
2019,07,15,06,44,15.00
2019,07,15,06,45,15.10
2019,07,15,06,46,15.10
2019,07,15,06,47,15.10
2019,07,15,06,48,15.10
2019,07,15,06,49,15.10
2019,07,15,06,50,15.10
2019,07,15,06,51,15.20
2019,07,15,06,52,15.20
2019,07,15,06,53,15.20
2019,07,15,06,54,15.20
2019,07,15,06,55,15.30
2019,07,15,06,56,15.30
2019,07,15,06,57,15.30
2019,07,15,06,58,15.40
2019,07,15,06,59,15.40
2019,07,15,07,00,15.50
2019,07,15,07,01,15.60
2019,07,15,07,02,15.70
2019,07,15,07,03,15.80
2019,07,15,07,04,15.80
2019,07,15,07,05,15.80
2019,07,15,07,06,15.80
2019,07,15,07,07,15.90
2019,07,15,07,08,15.90
2019,07,15,07,09,15.90
2019,07,15,07,10,15.90
2019,07,15,07,11,15.90
2019,07,15,07,12,16.00
2019,07,15,07,13,16.00
2019,07,15,07,14,16.00
2019,07,15,07,15,16.00
2019,07,15,07,16,16.00
2019,07,15,07,17,16.00
2019,07,15,07,18,16.00
2019,07,15,07,19,16.00
2019,07,15,07,20,16.00
2019,07,15,07,21,16.00
2019,07,15,07,22,15.90
2019,07,15,07,23,15.90
2019,07,15,07,24,15.90
2019,07,15,07,25,15.90
2019,07,15,07,26,15.90
2019,07,15,07,27,15.90
2019,07,15,07,28,16.00
2019,07,15,07,29,16.00
2019,07,15,07,30,16.00
2019,07,15,07,31,16.10
2019,07,15,07,32,16.10
2019,07,15,07,33,16.10
2019,07,15,07,34,16.10
2019,07,15,07,35,16.10
2019,07,15,07,36,16.10
2019,07,15,07,37,16.20
2019,07,15,07,38,16.20
2019,07,15,07,39,16.20
2019,07,15,07,40,16.20
2019,07,15,07,41,16.20
2019,07,15,07,42,16.20
2019,07,15,07,43,16.20
2019,07,15,07,44,16.20
2019,07,15,07,45,16.30
2019,07,15,07,46,16.30
2019,07,15,07,47,16.30
2019,07,15,07,48,16.30
2019,07,15,07,49,16.30
2019,07,15,07,50,16.30
2019,07,15,07,51,16.40
2019,07,15,07,52,16.40
2019,07,15,07,53,16.40
2019,07,15,07,54,16.40
2019,07,15,07,55,16.40
2019,07,15,07,56,16.50
2019,07,15,07,57,16.60
2019,07,15,07,58,16.60
2019,07,15,07,59,16.70
2019,07,15,08,00,16.70
2019,07,15,08,01,16.80
2019,07,15,08,02,16.80
2019,07,15,08,03,16.80
2019,07,15,08,04,16.90
2019,07,15,08,05,16.90
2019,07,15,08,06,16.90
2019,07,15,08,07,17.00
2019,07,15,08,08,17.00
2019,07,15,08,09,17.10
2019,07,15,08,10,17.10
2019,07,15,08,11,17.10
2019,07,15,08,12,17.10
2019,07,15,08,13,17.10
2019,07,15,08,14,17.00
2019,07,15,08,15,17.00
2019,07,15,08,16,16.90
2019,07,15,08,17,16.90
2019,07,15,08,18,16.90
2019,07,15,08,19,16.90
2019,07,15,08,20,16.80
2019,07,15,08,21,16.80
2019,07,15,08,22,16.80
2019,07,15,08,23,16.80
2019,07,15,08,24,16.80
2019,07,15,08,25,16.80
2019,07,15,08,26,16.80
2019,07,15,08,27,16.90
2019,07,15,08,28,16.90
2019,07,15,08,29,16.90
2019,07,15,08,30,16.90
2019,07,15,08,31,16.90
2019,07,15,08,32,17.00
2019,07,15,08,33,17.00
2019,07,15,08,34,17.00
2019,07,15,08,35,17.00
2019,07,15,08,36,17.00
2019,07,15,08,37,17.10
2019,07,15,08,38,17.10
2019,07,15,08,39,17.10
2019,07,15,08,40,17.10
2019,07,15,08,41,17.10
2019,07,15,08,42,17.10
2019,07,15,08,43,17.10
2019,07,15,08,44,17.20
2019,07,15,08,45,17.20
2019,07,15,08,46,17.20
2019,07,15,08,47,17.20
2019,07,15,08,48,17.20
2019,07,15,08,49,17.30
2019,07,15,08,50,17.40
2019,07,15,08,51,17.40
2019,07,15,08,52,17.50
2019,07,15,08,53,17.60
2019,07,15,08,54,17.70
2019,07,15,08,55,17.70
2019,07,15,08,56,17.80
2019,07,15,08,57,17.80
2019,07,15,08,58,17.80
2019,07,15,08,59,17.90
2019,07,15,09,00,17.90
2019,07,15,09,01,17.80
2019,07,15,09,02,17.80
2019,07,15,09,03,17.80
2019,07,15,09,04,17.90
2019,07,15,09,05,17.90
2019,07,15,09,06,18.00
2019,07,15,09,07,18.10
2019,07,15,09,08,18.10
2019,07,15,09,09,18.10
2019,07,15,09,10,18.10
2019,07,15,09,11,18.10
2019,07,15,09,12,18.10
2019,07,15,09,13,18.10
2019,07,15,09,14,18.10
2019,07,15,09,15,18.10
2019,07,15,09,16,18.10
2019,07,15,09,17,18.00
2019,07,15,09,18,18.00
2019,07,15,09,19,18.00
2019,07,15,09,20,18.00
2019,07,15,09,21,18.00
2019,07,15,09,22,18.00
2019,07,15,09,23,18.00
2019,07,15,09,24,18.00
2019,07,15,09,25,18.10
2019,07,15,09,26,18.20
2019,07,15,09,27,18.20
2019,07,15,09,28,18.30
2019,07,15,09,29,18.40
2019,07,15,09,30,18.40
2019,07,15,09,31,18.40
2019,07,15,09,32,18.50
2019,07,15,09,33,18.60
2019,07,15,09,34,18.60
2019,07,15,09,35,18.60
2019,07,15,09,36,18.60
2019,07,15,09,37,18.60
2019,07,15,09,38,18.60
2019,07,15,09,39,18.60
2019,07,15,09,40,18.60
2019,07,15,09,41,18.60
2019,07,15,09,42,18.60
2019,07,15,09,43,18.70
2019,07,15,09,44,18.70
2019,07,15,09,45,18.70
2019,07,15,09,46,18.80
2019,07,15,09,47,18.80
2019,07,15,09,48,18.80
2019,07,15,09,49,18.80
2019,07,15,09,50,18.90
2019,07,15,09,51,18.90
2019,07,15,09,52,18.90
2019,07,15,09,53,18.90
2019,07,15,09,54,18.90
2019,07,15,09,55,18.90
2019,07,15,09,56,19.00
2019,07,15,09,57,19.00
2019,07,15,09,58,19.10
2019,07,15,09,59,19.20
2019,07,15,10,00,19.20
2019,07,15,10,01,19.30
2019,07,15,10,02,19.40
2019,07,15,10,03,19.50
2019,07,15,10,04,19.50
2019,07,15,10,05,19.60
2019,07,15,10,06,19.70
2019,07,15,10,07,19.70
2019,07,15,10,08,19.80
2019,07,15,10,09,19.80
2019,07,15,10,10,19.70
2019,07,15,10,11,19.70
2019,07,15,10,12,19.70
2019,07,15,10,13,19.70
2019,07,15,10,14,19.70
2019,07,15,10,15,19.60
2019,07,15,10,16,19.50
2019,07,15,10,17,19.40
2019,07,15,10,18,19.30
2019,07,15,10,19,19.30
2019,07,15,10,20,19.30
2019,07,15,10,21,19.30
2019,07,15,10,22,19.30
2019,07,15,10,23,19.40
2019,07,15,10,24,19.50
2019,07,15,10,25,19.60
2019,07,15,10,26,19.70
2019,07,15,10,27,19.70
2019,07,15,10,28,19.70
2019,07,15,10,29,19.70
2019,07,15,10,30,19.80
2019,07,15,10,31,19.80
2019,07,15,10,32,19.80
2019,07,15,10,33,19.80
2019,07,15,10,34,19.80
2019,07,15,10,35,19.80
2019,07,15,10,36,19.80
2019,07,15,10,37,19.80
2019,07,15,10,38,19.80
2019,07,15,10,39,19.80
2019,07,15,10,40,19.80
2019,07,15,10,41,19.80
2019,07,15,10,42,19.90
2019,07,15,10,43,19.90
2019,07,15,10,44,20.00
2019,07,15,10,45,20.00
2019,07,15,10,46,20.00
2019,07,15,10,47,20.00
2019,07,15,10,48,19.90
2019,07,15,10,49,19.90
2019,07,15,10,50,19.90
2019,07,15,10,51,19.80
2019,07,15,10,52,19.80
2019,07,15,10,53,19.80
2019,07,15,10,54,19.80
2019,07,15,10,55,19.80
2019,07,15,10,56,19.80
2019,07,15,10,57,19.80
2019,07,15,10,58,19.90
2019,07,15,10,59,19.90
2019,07,15,11,00,19.90
2019,07,15,11,01,19.90
2019,07,15,11,02,20.00
2019,07,15,11,03,20.00
2019,07,15,11,04,20.00
2019,07,15,11,05,20.00
2019,07,15,11,06,20.00
2019,07,15,11,07,20.10
2019,07,15,11,08,20.10
2019,07,15,11,09,20.20
2019,07,15,11,10,20.20
2019,07,15,11,11,20.30
2019,07,15,11,12,20.30
2019,07,15,11,13,20.30
2019,07,15,11,14,20.30
2019,07,15,11,15,20.30
2019,07,15,11,16,20.40
2019,07,15,11,17,20.50
2019,07,15,11,18,20.60
2019,07,15,11,19,20.70
2019,07,15,11,20,20.70
2019,07,15,11,21,20.80
2019,07,15,11,22,20.80
2019,07,15,11,23,20.80
2019,07,15,11,24,20.80
2019,07,15,11,25,20.80
2019,07,15,11,26,20.80
2019,07,15,11,27,20.80
2019,07,15,11,28,20.70
2019,07,15,11,29,20.70
2019,07,15,11,30,20.70
2019,07,15,11,31,20.80
2019,07,15,11,32,20.90
2019,07,15,11,33,21.00
2019,07,15,11,34,21.00
2019,07,15,11,35,21.10
2019,07,15,11,36,21.10
2019,07,15,11,37,21.10
2019,07,15,11,38,21.20
2019,07,15,11,39,21.20
2019,07,15,11,40,21.30
2019,07,15,11,41,21.30
2019,07,15,11,42,21.30
2019,07,15,11,43,21.30
2019,07,15,11,44,21.30
2019,07,15,11,45,21.30
2019,07,15,11,46,21.40
2019,07,15,11,47,21.50
2019,07,15,11,48,21.60
2019,07,15,11,49,21.60
2019,07,15,11,50,21.60
2019,07,15,11,51,21.60
2019,07,15,11,52,21.60
2019,07,15,11,53,21.60
2019,07,15,11,54,21.60
2019,07,15,11,55,21.60
2019,07,15,11,56,21.60
2019,07,15,11,57,21.60
2019,07,15,11,58,21.50
2019,07,15,11,59,21.40
2019,07,15,12,00,21.40
2019,07,15,12,01,21.30
2019,07,15,12,02,21.30
2019,07,15,12,03,21.30
2019,07,15,12,04,21.40
2019,07,15,12,05,21.40
2019,07,15,12,06,21.50
2019,07,15,12,07,21.60
2019,07,15,12,08,21.70
2019,07,15,12,09,21.80
2019,07,15,12,10,21.90
2019,07,15,12,11,22.00
2019,07,15,12,12,22.10
2019,07,15,12,13,22.10
2019,07,15,12,14,22.20
2019,07,15,12,15,22.30
2019,07,15,12,16,22.30
2019,07,15,12,17,22.40
2019,07,15,12,18,22.50
2019,07,15,12,19,22.50
2019,07,15,12,20,22.50
2019,07,15,12,21,22.50
2019,07,15,12,22,22.50
2019,07,15,12,23,22.50
2019,07,15,12,24,22.50
2019,07,15,12,25,22.50
2019,07,15,12,26,22.50
2019,07,15,12,27,22.60
2019,07,15,12,28,22.60
2019,07,15,12,29,22.60
2019,07,15,12,30,22.70
2019,07,15,12,31,22.70
2019,07,15,12,32,22.80
2019,07,15,12,33,22.80
2019,07,15,12,34,22.80
2019,07,15,12,35,22.80
2019,07,15,12,36,22.80
2019,07,15,12,37,22.80
2019,07,15,12,38,22.80
2019,07,15,12,39,22.80
2019,07,15,12,40,22.80
2019,07,15,12,41,22.70
2019,07,15,12,42,22.70
2019,07,15,12,43,22.70
2019,07,15,12,44,22.70
2019,07,15,12,45,22.60
2019,07,15,12,46,22.60
2019,07,15,12,47,22.60
2019,07,15,12,48,22.60
2019,07,15,12,49,22.70
2019,07,15,12,50,22.80
2019,07,15,12,51,22.90
2019,07,15,12,52,22.90
2019,07,15,12,53,23.00
2019,07,15,12,54,23.00
2019,07,15,12,55,22.90
2019,07,15,12,56,22.90
2019,07,15,12,57,22.90
2019,07,15,12,58,22.90
2019,07,15,12,59,23.00
2019,07,15,13,00,23.00
2019,07,15,13,01,23.00
2019,07,15,13,02,22.90
2019,07,15,13,03,23.00
2019,07,15,13,04,23.00
2019,07,15,13,05,23.00
2019,07,15,13,06,23.00
2019,07,15,13,07,22.90
2019,07,15,13,08,22.90
2019,07,15,13,09,22.90
2019,07,15,13,10,22.90
2019,07,15,13,11,22.90
2019,07,15,13,12,22.90
2019,07,15,13,13,22.90
2019,07,15,13,14,23.00
2019,07,15,13,15,23.10
2019,07,15,13,16,23.10
2019,07,15,13,17,23.20
2019,07,15,13,18,23.30
2019,07,15,13,19,23.30
2019,07,15,13,20,23.30
2019,07,15,13,21,23.30
2019,07,15,13,22,23.30
2019,07,15,13,23,23.30
2019,07,15,13,24,23.30
2019,07,15,13,25,23.30
2019,07,15,13,26,23.30
2019,07,15,13,27,23.30
2019,07,15,13,28,23.30
2019,07,15,13,29,23.30
2019,07,15,13,30,23.30
2019,07,15,13,31,23.30
2019,07,15,13,32,23.20
2019,07,15,13,33,23.30
2019,07,15,13,34,23.30
2019,07,15,13,35,23.30
2019,07,15,13,36,23.40
2019,07,15,13,37,23.40
2019,07,15,13,38,23.50
2019,07,15,13,39,23.40
2019,07,15,13,40,23.40
2019,07,15,13,41,23.40
2019,07,15,13,42,23.40
2019,07,15,13,43,23.40
2019,07,15,13,44,23.40
2019,07,15,13,45,23.40
2019,07,15,13,46,23.40
2019,07,15,13,47,23.40
2019,07,15,13,48,23.40
2019,07,15,13,49,23.40
2019,07,15,13,50,23.30
2019,07,15,13,51,23.30
2019,07,15,13,52,23.30
2019,07,15,13,53,23.30
2019,07,15,13,54,23.30
2019,07,15,13,55,23.30
2019,07,15,13,56,23.30
2019,07,15,13,57,23.20
2019,07,15,13,58,23.10
2019,07,15,13,59,23.10
2019,07,15,14,00,23.10
2019,07,15,14,01,23.10
2019,07,15,14,02,23.00
2019,07,15,14,03,23.00
2019,07,15,14,04,22.90
2019,07,15,14,05,22.90
2019,07,15,14,06,23.00
2019,07,15,14,07,23.00
2019,07,15,14,08,23.00
2019,07,15,14,09,23.00
2019,07,15,14,10,22.90
2019,07,15,14,11,22.90
2019,07,15,14,12,22.90
2019,07,15,14,13,22.90
2019,07,15,14,14,23.00
2019,07,15,14,15,23.00
2019,07,15,14,16,22.90
2019,07,15,14,17,22.90
2019,07,15,14,18,22.90
2019,07,15,14,19,22.80
2019,07,15,14,20,22.80
2019,07,15,14,21,22.80
2019,07,15,14,22,22.80
2019,07,15,14,23,22.80
2019,07,15,14,24,22.90
2019,07,15,14,25,22.90
2019,07,15,14,26,22.90
2019,07,15,14,27,22.90
2019,07,15,14,28,22.90
2019,07,15,14,29,22.90
2019,07,15,14,30,22.80
2019,07,15,14,31,22.80
2019,07,15,14,32,22.80
2019,07,15,14,33,22.90
2019,07,15,14,34,22.90
2019,07,15,14,35,23.00
2019,07,15,14,36,23.00
2019,07,15,14,37,23.00
2019,07,15,14,38,23.10
2019,07,15,14,39,23.10
2019,07,15,14,40,23.20
2019,07,15,14,41,23.30
2019,07,15,14,42,23.40
2019,07,15,14,43,23.40
2019,07,15,14,44,23.40
2019,07,15,14,45,23.40
2019,07,15,14,46,23.40
2019,07,15,14,47,23.40
2019,07,15,14,48,23.40
2019,07,15,14,49,23.30
2019,07,15,14,50,23.30
2019,07,15,14,51,23.20
2019,07,15,14,52,23.10
2019,07,15,14,53,23.10
2019,07,15,14,54,23.00
2019,07,15,14,55,22.90
2019,07,15,14,56,22.80
2019,07,15,14,57,22.80
2019,07,15,14,58,22.90
2019,07,15,14,59,22.90
2019,07,15,15,00,22.90
2019,07,15,15,01,23.00
2019,07,15,15,02,23.10
2019,07,15,15,03,23.10
2019,07,15,15,04,23.10
2019,07,15,15,05,23.10
2019,07,15,15,06,23.20
2019,07,15,15,07,23.30
2019,07,15,15,08,23.30
2019,07,15,15,09,23.40
2019,07,15,15,10,23.40
2019,07,15,15,11,23.40
2019,07,15,15,12,23.50
2019,07,15,15,13,23.50
2019,07,15,15,14,23.50
2019,07,15,15,15,23.50
2019,07,15,15,16,23.50
2019,07,15,15,17,23.40
2019,07,15,15,18,23.40
2019,07,15,15,19,23.30
2019,07,15,15,20,23.20
2019,07,15,15,21,23.20
2019,07,15,15,22,23.20
2019,07,15,15,23,23.20
2019,07,15,15,24,23.20
2019,07,15,15,25,23.20
2019,07,15,15,26,23.10
2019,07,15,15,27,23.10
2019,07,15,15,28,23.10
2019,07,15,15,29,23.10
2019,07,15,15,30,23.20
2019,07,15,15,31,23.20
2019,07,15,15,32,23.10
2019,07,15,15,33,23.10
2019,07,15,15,34,23.10
2019,07,15,15,35,23.10
2019,07,15,15,36,23.00
2019,07,15,15,37,23.00
2019,07,15,15,38,23.00
2019,07,15,15,39,22.90
2019,07,15,15,40,22.90
2019,07,15,15,41,22.90
2019,07,15,15,42,22.90
2019,07,15,15,43,22.80
2019,07,15,15,44,22.80
2019,07,15,15,45,22.80
2019,07,15,15,46,22.70
2019,07,15,15,47,22.60
2019,07,15,15,48,22.60
2019,07,15,15,49,22.50
2019,07,15,15,50,22.40
2019,07,15,15,51,22.40
2019,07,15,15,52,22.30
2019,07,15,15,53,22.30
2019,07,15,15,54,22.30
2019,07,15,15,55,22.30
2019,07,15,15,56,22.40
2019,07,15,15,57,22.30
2019,07,15,15,58,22.30
2019,07,15,15,59,22.30
2019,07,15,16,00,22.20
2019,07,15,16,01,22.20
2019,07,15,16,02,22.10
2019,07,15,16,03,22.10
2019,07,15,16,04,22.10
2019,07,15,16,05,22.10
2019,07,15,16,06,22.10
2019,07,15,16,07,22.10
2019,07,15,16,08,22.10
2019,07,15,16,09,22.10
2019,07,15,16,10,22.10
2019,07,15,16,11,22.10
2019,07,15,16,12,22.10
2019,07,15,16,13,22.10
2019,07,15,16,14,22.10
2019,07,15,16,15,22.10
2019,07,15,16,16,22.10
2019,07,15,16,17,22.10
2019,07,15,16,18,22.10
2019,07,15,16,19,22.10
2019,07,15,16,20,22.10
2019,07,15,16,21,22.10
2019,07,15,16,22,22.10
2019,07,15,16,23,22.10
2019,07,15,16,24,22.10
2019,07,15,16,25,22.10
2019,07,15,16,26,22.10
2019,07,15,16,27,22.10
2019,07,15,16,28,22.10
2019,07,15,16,29,22.10
2019,07,15,16,30,22.20
2019,07,15,16,31,22.20
2019,07,15,16,32,22.30
2019,07,15,16,33,22.30
2019,07,15,16,34,22.40
2019,07,15,16,35,22.30
2019,07,15,16,36,22.30
2019,07,15,16,37,22.30
2019,07,15,16,38,22.30
2019,07,15,16,39,22.20
2019,07,15,16,40,22.10
2019,07,15,16,41,22.10
2019,07,15,16,42,22.00
2019,07,15,16,43,21.90
2019,07,15,16,44,21.90
2019,07,15,16,45,21.80
2019,07,15,16,46,21.80
2019,07,15,16,47,21.70
2019,07,15,16,48,21.70
2019,07,15,16,49,21.60
2019,07,15,16,50,21.50
2019,07,15,16,51,21.50
2019,07,15,16,52,21.50
2019,07,15,16,53,21.50
2019,07,15,16,54,21.50
2019,07,15,16,55,21.30
2019,07,15,16,56,21.10
2019,07,15,16,57,20.90
2019,07,15,16,58,20.70
2019,07,15,16,59,20.60
2019,07,15,17,00,20.40
2019,07,15,17,01,20.20
2019,07,15,17,02,20.10
2019,07,15,17,03,20.10
2019,07,15,17,04,20.00
2019,07,15,17,05,20.00
2019,07,15,17,06,20.10
2019,07,15,17,07,20.00
2019,07,15,17,08,20.00
2019,07,15,17,09,19.90
2019,07,15,17,10,19.80
2019,07,15,17,11,19.80
2019,07,15,17,12,19.80
2019,07,15,17,13,19.80
2019,07,15,17,14,19.80
2019,07,15,17,15,19.80
2019,07,15,17,16,19.80
2019,07,15,17,17,19.80
2019,07,15,17,18,19.80
2019,07,15,17,19,19.80